This demonstration page uses our WeatherBlox Daily Observations layout. Learn more.

Left ArrowRight Arrow

41.86663, -103.66717

Hourly Observations for November 27, 2020

Temp ( °F °C ) Dew Point ( °F °C ) Humidity (%) Winds ( mph kmh ) Pressure ( in mb ) Visibility ( mi km ) Precip ( " mm )
12:53 am 00:53 Clear 20 -6.7 14 -10 78 78 NW 8 13 30.30 1026 10 16 0.00 0.00
1:53 am 01:53 Clear 20 -6.7 13 -10.6 74 74 NNW 9 15 30.31 1026 10 16 0.00 0.00
2:53 am 02:53 Clear 17 -8.3 11 -11.7 77 77 NW 6 9 30.33 1027 10 16 0.00 0.00
3:53 am 03:53 Clear 18 -7.8 11 -11.7 74 74 W 3 6 30.32 1027 10 16 0.00 0.00
4:53 am 04:53 Clear 13 -10.6 8 -13.3 81 81 N 5 7 30.34 1027 10 16 0.00 0.00
5:53 am 05:53 Clear 14 -10 9 -12.8 80 80 N 5 7 30.34 1027 10 16 0.00 0.00
6:53 am 06:53 Clear 15 -9.4 9 -12.8 77 77 Calm 30.37 1029 10 16 0.00 0.00
7:53 am 07:53 Sunny 20 -6.7 12 -11.1 71 71 Calm 30.37 1028 10 16 0.00 0.00
8:53 am 08:53 Sunny 27 -2.8 15 -9.4 61 61 NW 5 7 30.37 1028 10 16 0.00 0.00
9:53 am 09:53 Sunny 36 2.2 15 -9.4 42 42 WSW 3 6 30.33 1027 10 16 0.00 0.00
10:53 am 10:53 Sunny 42 5.6 13 -10.6 30 30 SW 7 11 30.29 1026 10 16 0.00 0.00
11:53 am 11:53 Sunny 47 8.3 10 -12.2 22 22 WSW 9 15 30.25 1024 10 16 0.00 0.00
12:53 pm 12:53 Sunny 50 10 10 -12.2 20 20 WSW 10 17 30.22 1023 10 16 0.00 0.00
1:53 pm 13:53 Sunny 51 10.6 8 -13.3 17 17 WSW 9 15 30.20 1023 10 16 0.00 0.00
2:53 pm 14:53 Sunny 51 10.6 8 -13.3 17 17 W 6 9 30.20 1023 10 16 0.00 0.00
3:53 pm 15:53 Sunny 48 8.9 8 -13.3 19 19 WNW 3 6 30.21 1023 10 16 0.00 0.00
4:53 pm 16:53 Clear 37 2.8 8 -13.3 30 30 Calm 30.25 1024 10 16 0.00 0.00
5:53 pm 17:53 Clear 32 0 7 -13.9 35 35 SE 3 6 30.27 1025 10 16 0.00 0.00
6:53 pm 18:53 Clear 26 -3.3 8 -13.3 46 46 NNW 6 9 30.28 1026 10 16 0.00 0.00
7:53 pm 19:53 Clear 30 -1.1 8 -13.3 39 39 Calm 30.25 1025 10 16 0.00 0.00
8:53 pm 20:53 Clear 30 -1.1 10 -12.2 43 43 NW 6 9 30.23 1024 10 16 0.00 0.00
9:53 pm 21:53 Clear 29 -1.7 10 -12.2 45 45 WNW 5 7 30.21 1023 10 16 0.00 0.00
10:53 pm 22:53 Clear 23 -5 9 -12.8 55 55 Calm 30.21 1023 10 16 0.00 0.00
11:53 pm 23:53 Clear 21 -6.1 8 -13.3 57 57 NW 3 6 30.21 1023 10 16 0.00 0.00

Powered by AerisWeather